EN

Hourly Weather Aaruti

Today, 12 June, Saturday

Time Temperature Precipitation Wind Pressure Humidity
00:00 +16°C° 0 mm 1 mps 721 mmHg 86%
01:00 +15°C° 0 mm 1 mps 721 mmHg 86%
02:00 +15°C° 0 mm 1 mps 721 mmHg 87%
03:00 +15°C° 0 mm 1 mps 721 mmHg 87%
04:00 +14°C° 0 mm 1 mps 720 mmHg 88%
05:00 +16°C° 0 mm 1 mps 721 mmHg 84%
06:00 +18°C° 0 mm 1 mps 721 mmHg 81%
07:00 +19°C° 0 mm 1 mps 722 mmHg 77%
08:00 +21°C° 0 mm 1 mps 722 mmHg 70%
09:00 +23°C° 0 mm 1 mps 722 mmHg 63%
10:00 +25°C° 0 mm 1 mps 722 mmHg 56%
11:00 +26°C° 0 mm 2 mps 722 mmHg 52%
12:00 +27°C° 0 mm 2 mps 722 mmHg 48%
13:00 +28°C° 0 mm 3 mps 722 mmHg 45%
14:00 +27°C° 0 mm 3 mps 722 mmHg 48%
15:00 +27°C° 0 mm 3 mps 722 mmHg 51%
16:00 +27°C° 0 mm 3 mps 722 mmHg 54%
17:00 +25°C° 0.1 mm 3 mps 722 mmHg 61%
18:00 +24°C° 0.1 mm 3 mps 722 mmHg 69%
19:00 +21°C° 0.1 mm 2 mps 722 mmHg 76%
20:00 +20°C° 0.1 mm 2 mps 723 mmHg 82%
21:00 +19°C° 0.1 mm 1 mps 723 mmHg 87%
22:00 +16°C° 0.1 mm 1 mps 724 mmHg 93%
23:00 +16°C° 0 mm 1 mps 724 mmHg 94%

Tomorrow, 13 June, Sunday

Time Temperature Precipitation Wind Pressure Humidity
00:00 +16°C° 0 mm 1 mps 724 mmHg 94%
01:00 +15°C° 0 mm 1 mps 724 mmHg 95%
02:00 +15°C° 0 mm 1 mps 724 mmHg 95%
03:00 +15°C° 0 mm 1 mps 724 mmHg 95%
04:00 +15°C° 0 mm 1 mps 723 mmHg 96%
05:00 +16°C° 0 mm 1 mps 724 mmHg 93%
06:00 +16°C° 0 mm 1 mps 724 mmHg 90%
07:00 +18°C° 0 mm 1 mps 724 mmHg 87%
08:00 +20°C° 0 mm 1 mps 724 mmHg 79%
09:00 +21°C° 0 mm 1 mps 724 mmHg 71%
10:00 +23°C° 0 mm 1 mps 724 mmHg 62%
11:00 +24°C° 0 mm 2 mps 724 mmHg 57%
12:00 +25°C° 0 mm 2 mps 724 mmHg 52%
13:00 +26°C° 0 mm 2 mps 724 mmHg 47%
14:00 +26°C° 0 mm 3 mps 724 mmHg 47%
15:00 +26°C° 0 mm 3 mps 724 mmHg 47%
16:00 +26°C° 0 mm 3 mps 724 mmHg 47%
17:00 +24°C° 0 mm 3 mps 724 mmHg 54%
18:00 +22°C° 0 mm 3 mps 724 mmHg 61%
19:00 +20°C° 0 mm 3 mps 724 mmHg 68%
20:00 +18°C° 0 mm 3 mps 724 mmHg 74%
21:00 +16°C° 0 mm 2 mps 724 mmHg 79%
22:00 +14°C° 0 mm 2 mps 724 mmHg 85%
23:00 +13°C° 0 mm 2 mps 723 mmHg 87%

Day after tomorrow, 14 June, Monday

Time Temperature Precipitation Wind Pressure Humidity
00:00 +12°C° 0 mm 2 mps 723 mmHg 89%
01:00 +11°C° 0 mm 1 mps 723 mmHg 92%
02:00 +11°C° 0 mm 1 mps 723 mmHg 91%
03:00 +10°C° 0 mm 1 mps 722 mmHg 91%
04:00 +10°C° 0 mm 1 mps 722 mmHg 91%
05:00 +11°C° 0 mm 1 mps 722 mmHg 85%
06:00 +13°C° 0 mm 1 mps 723 mmHg 79%
07:00 +14°C° 0 mm 1 mps 723 mmHg 73%
08:00 +16°C° 0 mm 1 mps 723 mmHg 67%
09:00 +19°C° 0 mm 2 mps 723 mmHg 60%
10:00 +21°C° 0 mm 2 mps 722 mmHg 53%
11:00 +23°C° 0 mm 2 mps 722 mmHg 49%
12:00 +25°C° 0 mm 2 mps 722 mmHg 45%
13:00 +26°C° 0 mm 2 mps 722 mmHg 41%
14:00 +26°C° 0 mm 2 mps 721 mmHg 41%
15:00 +27°C° 0 mm 2 mps 721 mmHg 42%
16:00 +27°C° 0 mm 2 mps 721 mmHg 42%
17:00 +26°C° 0 mm 2 mps 721 mmHg 52%
18:00 +24°C° 0 mm 2 mps 721 mmHg 63%
19:00 +21°C° 0 mm 2 mps 721 mmHg 73%
20:00 +19°C° 0 mm 2 mps 721 mmHg 80%
21:00 +19°C° 0 mm 1 mps 721 mmHg 87%
22:00 +16°C° 0 mm 1 mps 721 mmHg 93%
23:00 +15°C° 0 mm 1 mps 721 mmHg 94%

15 June, Tuesday

Time Temperature Precipitation Wind Pressure Humidity
00:00 +14°C° 0 mm 1 mps 721 mmHg 94%
01:00 +14°C° 0 mm 1 mps 721 mmHg 94%
02:00 +14°C° 0 mm 1 mps 721 mmHg 94%
03:00 +13°C° 0 mm 1 mps 720 mmHg 94%
04:00 +13°C° 0 mm 1 mps 720 mmHg 94%
05:00 +13°C° 0 mm 0 mps 721 mmHg 90%
06:00 +14°C° 0 mm 0 mps 721 mmHg 85%
07:00 +16°C° 0 mm 0 mps 721 mmHg 81%
08:00 +20°C° 0 mm 1 mps 721 mmHg 73%
09:00 +22°C° 0 mm 1 mps 721 mmHg 65%
10:00 +24°C° 0 mm 1 mps 721 mmHg 57%
11:00 +25°C° 0 mm 1 mps 721 mmHg 52%
12:00 +27°C° 0 mm 1 mps 721 mmHg 47%
13:00 +28°C° 0 mm 2 mps 721 mmHg 42%
14:00 +28°C° 0 mm 2 mps 721 mmHg 42%
15:00 +28°C° 0 mm 2 mps 720 mmHg 41%
16:00 +28°C° 0 mm 2 mps 720 mmHg 41%
17:00 +27°C° 0 mm 2 mps 720 mmHg 52%
18:00 +25°C° 0 mm 2 mps 720 mmHg 62%
19:00 +23°C° 0 mm 1 mps 720 mmHg 73%
20:00 +22°C° 0 mm 1 mps 720 mmHg 77%
21:00 +20°C° 0 mm 1 mps 720 mmHg 82%
22:00 +18°C° 0 mm 1 mps 720 mmHg 87%
23:00 +16°C° 0 mm 1 mps 720 mmHg 88%

16 June, Wednesday

Time Temperature Precipitation Wind Pressure Humidity
00:00 +16°C° 0 mm 1 mps 719 mmHg 89%
01:00 +15°C° 0 mm 1 mps 719 mmHg 91%
02:00 +15°C° 0 mm 1 mps 719 mmHg 91%
03:00 +15°C° 0 mm 1 mps 719 mmHg 92%
04:00 +13°C° 0 mm 0 mps 719 mmHg 92%
05:00 +15°C° 0 mm 0 mps 719 mmHg 88%
06:00 +16°C° 0 mm 0 mps 719 mmHg 85%
07:00 +17°C° 0 mm 0 mps 719 mmHg 81%
08:00 +19°C° 0 mm 0 mps 719 mmHg 72%
09:00 +22°C° 0 mm 0 mps 719 mmHg 64%
10:00 +26°C° 0 mm 1 mps 719 mmHg 56%
11:00 +27°C° 0 mm 1 mps 719 mmHg 50%
12:00 +29°C° 0 mm 1 mps 719 mmHg 45%
13:00 +30°C° 0 mm 1 mps 719 mmHg 40%
14:00 +30°C° 0 mm 1 mps 718 mmHg 39%
15:00 +30°C° 0 mm 1 mps 718 mmHg 37%
16:00 +31°C° 0 mm 1 mps 718 mmHg 36%
17:00 +29°C° 0 mm 1 mps 718 mmHg 47%
18:00 +27°C° 0 mm 1 mps 717 mmHg 57%
19:00 +26°C° 0 mm 1 mps 717 mmHg 68%
20:00 +24°C° 0 mm 1 mps 717 mmHg 74%
21:00 +21°C° 0 mm 1 mps 717 mmHg 80%
22:00 +19°C° 0 mm 1 mps 717 mmHg 86%
23:00 +19°C° 0 mm 1 mps 717 mmHg 86%

17 June, Thursday

Time Temperature Precipitation Wind Pressure Humidity
00:00 +18°C° 0 mm 1 mps 717 mmHg 86%
01:00 +18°C° 0 mm 1 mps 717 mmHg 86%
02:00 +18°C° 0 mm 1 mps 717 mmHg 87%
03:00 +16°C° 0 mm 1 mps 717 mmHg 87%
04:00 +15°C° 0 mm 0 mps 717 mmHg 88%
05:00 +17°C° 0 mm 0 mps 718 mmHg 84%
06:00 +18°C° 0 mm 0 mps 718 mmHg 80%
07:00 +19°C° 0 mm 0 mps 718 mmHg 76%
08:00 +21°C° 0 mm 0 mps 718 mmHg 69%
09:00 +24°C° 0 mm 0 mps 719 mmHg 62%
10:00 +28°C° 0 mm 1 mps 719 mmHg 55%
11:00 +29°C° 0 mm 1 mps 719 mmHg 51%
12:00 +30°C° 0 mm 1 mps 718 mmHg 46%
13:00 +32°C° 0 mm 1 mps 718 mmHg 42%
14:00 +32°C° 0 mm 2 mps 718 mmHg 41%
15:00 +32°C° 0 mm 2 mps 718 mmHg 40%
16:00 +32°C° 0 mm 2 mps 718 mmHg 39%
17:00 +31°C° 0 mm 2 mps 718 mmHg 50%
18:00 +29°C° 0 mm 1 mps 718 mmHg 60%
19:00 +27°C° 0 mm 1 mps 717 mmHg 71%
20:00 +26°C° 0 mm 1 mps 718 mmHg 75%
21:00 +24°C° 0 mm 1 mps 718 mmHg 80%
22:00 +22°C° 0 mm 1 mps 718 mmHg 85%
23:00 +22°C° 0 mm 1 mps 717 mmHg 85%
Show more